Location: Unspecified
(0.0000°N, 0.0000°E)
Time: 21:07:52
(UTC+00:00)

deb Kosmos-1275 - Pass Details

Date: 12 March 2026
Orbit: 928 x 975 km, 82.8° (Epoch: 10 April)

Event Time Altitude Azimuth Distance (km) Brightness Sun altitude
Rises 05:41:52 0° 23° (NNE) 3,656 ? -7.0°
Reaches altitude 10° 05:44:58 10° 38° (NE) 2,712 ? -6.2°
Maximum altitude 05:49:38 22° 87° (E) 1,973 ? -5.0°
Drops below altitude 10° 05:54:16 10° 136° (SE) 2,714 ? -3.9°
Sets 05:57:21 0° 150° (SSE) 3,658 ? -3.1°
